User: anonymous   Login
Location: Franzen
(48.6167°N, 15.3833°E)
Time: 13:38:05
(UTC+00:00)
Language:

Cosmos 1709 Rocket - Orbit

View from above orbital plane
View from above orbital plane
View from above satellite
View from above satellite

Ground track
Ground track

The orbit data is extracted from the following two-line orbital elements,

1 16369U 85116B   21170.97357549 -.00000039  00000-0 -54482-4 0  9997
2 16369  82.9361 339.5978 0036863  24.3788  87.3856 13.76880910783400
Epoch (UTC): 19 June 2021 23:21:56
Eccentricity: 0.0036863
inclination: 82.9361°
perigee height: 948 km
apogee height: 1002 km
right ascension of ascending node: 339.5978°
argument of perigee: 24.3788°
revolutions per day: 13.76880910
mean anomaly at epoch: 87.3856°
orbit number at epoch: 78340

The dashed part of the orbit path shows where the satellite is in the earth's shadow,  

DLR